Pawtucket, RI

7:21 AM EST on November 21, 2017 (GMT -0500)
North Central State

Weather History for KSFZ - June, 2014

Change the Weather History Date:

Saturday, June 21, 2014

  Actual Average Record
Temperature  
Mean Temperature 58 °F -  
Max Temperature 73 °F 75 °F 91 °F (2012)
Min Temperature 44 °F 56 °F 44 °F (2004)
Degree Days  
Heating Degree Days 6    
Growing Degree Days 8 (Base 50)    
Moisture  
Dew Point 45 °F    
Average Humidity 58    
Maximum Humidity 87    
Minimum Humidity 38    
Precipitation  
Precipitation 0.00 in - - ()
Sea Level Pressure  
Sea Level Pressure 29.96 in    
Wind  
Wind Speed 3 mph (NW)    
Max Wind Speed 9 mph    
Max Gust Speed 16 mph    
Visibility 10 miles    
Events      
Averages and records for this station are not official NWS values.
T = Trace of Precipitation, MM = Missing Value Source: NWS Daily Summary

Daily Weather History Graph

Daily Weather History Graph

Search for Another Location

Airport or City:

Trip Planner

Search our weather history database for the weather conditions in past years. The results will help you decide how hot, cold, wet, or windy it might be!

Date:

Astronomy

Jun. 21, 2014 Rise Set
Actual Time 5:10 AM EDT 8:24 PM EDT
Civil Twilight 4:36 AM EDT 8:59 PM EDT
Nautical Twilight 3:51 AM EDT 9:43 PM EDT
Astronomical Twilight 2:58 AM EDT 10:37 PM EDT
Moon 1:26 AM EDT 2:56 PM EDT
Length of Visible Light 16h 22m
Length of Day
15h 14m
Waning Crescent, 30% of the Moon is Illuminated
Jun 21
Waning Crescent
Jun 27
New
Jul 5
First Quarter
Jul 12
Full
Jul 18
Last Quarter

Hourly Weather History & Observations

Time (EDT) Temp. Windchill Dew Point Humidity Pressure Visibility Wind Dir Wind Speed Gust Speed Precip Events Conditions
12:15 AM 51.8 °F - 39.2 °F 62% 29.99 in 10.0 mi Calm Calm - N/A   Clear
12:35 AM 48.2 °F - 39.2 °F 71% 29.99 in 10.0 mi Calm Calm - N/A   Clear
1:15 AM 48.2 °F - 41.0 °F 76% 29.98 in 10.0 mi NNE 4.6 mph - N/A   Clear
1:35 AM 48.2 °F - 42.8 °F 82% 29.98 in 10.0 mi Calm Calm - N/A   Clear
1:55 AM 46.4 °F - 41.0 °F 81% 29.98 in 10.0 mi Calm Calm - N/A   Clear
2:15 AM 46.4 °F - 41.0 °F 81% 29.99 in 10.0 mi Calm Calm - N/A   Clear
2:35 AM 46.4 °F - 41.0 °F 81% 29.99 in 10.0 mi Calm Calm - N/A   Clear
2:55 AM 48.2 °F - 41.0 °F 76% 29.99 in 10.0 mi NNW 4.6 mph - N/A   Clear
3:15 AM 46.4 °F - 41.0 °F 81% 29.99 in 10.0 mi Calm Calm - N/A   Clear
3:35 AM 46.4 °F - 39.2 °F 76% 29.98 in 10.0 mi Calm Calm - N/A   Clear
3:55 AM 46.4 °F - 39.2 °F 76% 29.98 in 10.0 mi Calm Calm - N/A   Clear
4:15 AM 50.0 °F - 39.2 °F 66% 29.98 in 10.0 mi NNE 4.6 mph - N/A   Clear
4:55 AM 46.4 °F 44.3 °F 41.0 °F 81% 29.99 in 10.0 mi SSW 4.6 mph - N/A   Clear
5:15 AM 46.4 °F - 39.2 °F 76% 29.99 in 10.0 mi Calm Calm - N/A   Clear
5:35 AM 44.6 °F - 39.2 °F 81% 29.99 in 10.0 mi Calm Calm - N/A   Clear
5:55 AM 44.6 °F - 39.2 °F 81% 29.99 in 10.0 mi Calm Calm - N/A   Clear
6:15 AM 46.4 °F - 42.8 °F 87% 29.99 in 10.0 mi Calm Calm - N/A   Clear
6:35 AM 51.8 °F - 42.8 °F 71% 30.00 in 10.0 mi Calm Calm - N/A   Clear
6:55 AM 53.6 °F - 44.6 °F 72% 30.00 in 10.0 mi Calm Calm - N/A   Clear
7:15 AM 55.4 °F - 44.6 °F 67% 30.00 in 10.0 mi Calm Calm - N/A   Clear
7:35 AM 57.2 °F - 46.4 °F 67% 30.00 in 10.0 mi Calm Calm - N/A   Clear
7:55 AM 60.8 °F - 44.6 °F 55% 29.99 in 10.0 mi Calm Calm - N/A   Clear
8:15 AM 60.8 °F - 44.6 °F 55% 29.99 in 10.0 mi WNW 4.6 mph - N/A   Clear
8:35 AM 62.6 °F - 44.6 °F 52% 29.99 in 10.0 mi NW 4.6 mph - N/A   Clear
8:55 AM 64.4 °F - 44.6 °F 49% 29.99 in 10.0 mi NNW 4.6 mph - N/A   Clear
9:15 AM 64.4 °F - 44.6 °F 49% 29.99 in 10.0 mi WNW 5.8 mph - N/A   Clear
9:35 AM 64.4 °F - 44.6 °F 49% 29.99 in 10.0 mi West 6.9 mph - N/A   Clear
9:55 AM 66.2 °F - 46.4 °F 49% 29.99 in 10.0 mi NW 5.8 mph - N/A   Clear
10:15 AM 66.2 °F - 44.6 °F 46% 29.99 in 10.0 mi NNW 8.1 mph - N/A   Clear
10:35 AM 66.2 °F - 44.6 °F 46% 29.98 in 10.0 mi NNW 8.1 mph - N/A   Clear
10:55 AM 66.2 °F - 44.6 °F 46% 29.98 in 10.0 mi West 6.9 mph - N/A   Clear
11:15 AM 68.0 °F - 44.6 °F 43% 29.98 in 10.0 mi NNW 8.1 mph - N/A   Clear
11:35 AM 68.0 °F - 44.6 °F 43% 29.97 in 10.0 mi NW 4.6 mph 16.1 mph N/A   Partly Cloudy
11:55 AM 69.8 °F - 46.4 °F 43% 29.96 in 10.0 mi WNW 6.9 mph - N/A   Clear
12:15 PM 69.8 °F - 46.4 °F 43% 29.96 in 10.0 mi NW 5.8 mph - N/A   Partly Cloudy
12:35 PM 71.6 °F - 46.4 °F 41% 29.95 in 10.0 mi NNW 9.2 mph 16.1 mph N/A   Partly Cloudy
12:55 PM 69.8 °F - 46.4 °F 43% 29.94 in 10.0 mi WNW 8.1 mph - N/A   Clear
1:15 PM 71.6 °F - 46.4 °F 41% 29.93 in 10.0 mi NW 6.9 mph - N/A   Partly Cloudy
1:35 PM 69.8 °F - 46.4 °F 43% 29.92 in 10.0 mi West 6.9 mph - N/A   Scattered Clouds
1:55 PM 69.8 °F - 46.4 °F 43% 29.92 in 10.0 mi NNW 6.9 mph - N/A   Scattered Clouds
2:15 PM 69.8 °F - 46.4 °F 43% 29.92 in 10.0 mi NW 3.5 mph - N/A   Scattered Clouds
2:35 PM 71.6 °F - 46.4 °F 41% 29.92 in 10.0 mi West 9.2 mph 16.1 mph N/A   Scattered Clouds
2:55 PM 71.6 °F - 46.4 °F 41% 29.92 in 10.0 mi WNW 9.2 mph - N/A   Scattered Clouds
3:15 PM 71.6 °F - 46.4 °F 41% 29.91 in 10.0 mi NNW 6.9 mph - N/A   Mostly Cloudy
3:35 PM 71.6 °F - 46.4 °F 41% 29.91 in 10.0 mi NNW 5.8 mph - N/A   Scattered Clouds
3:55 PM 71.6 °F - 46.4 °F 41% 29.91 in 10.0 mi WNW 6.9 mph - N/A   Mostly Cloudy
4:15 PM 73.4 °F - 46.4 °F 38% 29.91 in 10.0 mi WNW 5.8 mph - N/A   Scattered Clouds
4:35 PM 73.4 °F - 48.2 °F 41% 29.91 in 10.0 mi West 9.2 mph - N/A   Mostly Cloudy
4:55 PM 71.6 °F - 46.4 °F 41% 29.91 in 10.0 mi West 5.8 mph - N/A   Mostly Cloudy
5:15 PM 73.4 °F - 46.4 °F 38% 29.91 in 10.0 mi North 4.6 mph - N/A   Mostly Cloudy
5:35 PM 73.4 °F - 46.4 °F 38% 29.91 in 10.0 mi North 6.9 mph - N/A   Overcast
5:55 PM 71.6 °F - 48.2 °F 43% 29.91 in 10.0 mi NW 6.9 mph - N/A   Mostly Cloudy
6:15 PM 71.6 °F - 48.2 °F 43% 29.91 in 10.0 mi NW 5.8 mph - N/A   Mostly Cloudy
6:35 PM 71.6 °F - 48.2 °F 43% 29.91 in 10.0 mi NW 4.6 mph - N/A   Mostly Cloudy
6:55 PM 69.8 °F - 48.2 °F 46% 29.91 in 10.0 mi NW 3.5 mph - N/A   Mostly Cloudy
7:15 PM 68.0 °F - 48.2 °F 49% 29.92 in 10.0 mi NW 3.5 mph - N/A   Overcast
7:35 PM 68.0 °F - 48.2 °F 49% 29.92 in 10.0 mi NW 5.8 mph - N/A   Overcast
7:55 PM 66.2 °F - 48.2 °F 52% 29.92 in 10.0 mi NW 5.8 mph - N/A   Overcast
8:15 PM 66.2 °F - 46.4 °F 49% 29.93 in 10.0 mi North 8.1 mph - N/A   Scattered Clouds
8:35 PM 64.4 °F - 46.4 °F 52% 29.93 in 10.0 mi NNE 4.6 mph - N/A   Mostly Cloudy
8:55 PM 64.4 °F - 46.4 °F 52% 29.93 in 10.0 mi NE 3.5 mph - N/A   Mostly Cloudy
9:15 PM 62.6 °F - 46.4 °F 55% 29.93 in 10.0 mi Calm Calm - N/A   Mostly Cloudy
9:35 PM 60.8 °F - 48.2 °F 63% 29.94 in 10.0 mi Calm Calm - N/A   Mostly Cloudy
9:55 PM 57.2 °F - 48.2 °F 72% 29.94 in 10.0 mi Calm Calm - N/A   Mostly Cloudy
10:15 PM 55.4 °F - 48.2 °F 77% 29.95 in 10.0 mi Calm Calm - N/A   Partly Cloudy
10:35 PM 53.6 °F - 46.4 °F 77% 29.95 in 10.0 mi Calm Calm - N/A   Clear
10:55 PM 53.6 °F - 46.4 °F 77% 29.95 in 10.0 mi Calm Calm - N/A   Clear
11:15 PM 53.6 °F - 46.4 °F 77% 29.95 in 10.0 mi Calm Calm - N/A   Clear
11:35 PM 53.6 °F - 46.4 °F 77% 29.95 in 10.0 mi Calm Calm - N/A   Clear
11:55 PM 51.8 °F - 46.4 °F 82% 29.95 in 9.0 mi Calm Calm - N/A   Mostly Cloudy